Fort Stockton Pecos County Airport
KFST : now visible

Airfield :











YOU CAN JOIN US ON...

 
LOGIN :

Register | Disclaimer

   EN    FR    IT 

 









Legend :    VFR   Marginal VFR   IFR   Intensive IFR   Very Intensive IFR
Visi :
Ceiling :
>= 8 km
>= 3000ft
5 to 8 km
1000 to 3000 ft
1500m to 5 km
500 to 1000 ft
800 to 1500m
200 to 500 ft
< 800m
< 200 ft
Symbols :   Thunderstorms  Fog  Heavy snow  Heavy precipitations  Wind > 20 kt







- Airport Elevation : 3011 ft


KFST - Fort Stockton Pecos County

CURRENT METAR :
  • 181853Z AUTO 15006G17KT 10SM CLR 36/14 A2996 RMK AO2 SLP090 T03560139

EXPIRED METARs :
  • 181753Z AUTO 22006G15KT 10SM CLR 34/13 A2998 RMK AO2 SLP098 T03440128 10344 20222 58012
  • 181653Z AUTO VRB06KT 10SM CLR 33/13 A3000 RMK AO2 SLP106 T03280133

TAF KFST
Valid from the 18 at 18:00 until the 19 at 18:00 UTC


181720Z 1818/1918 18011KT P6SM SKC
FM181900 16013G23KT P6SM FEW070
FM190900 17011KT P6SM SKC
KZAB FIR / North America



MET'MAP, your aeronautical weather chart ! - Copyright ORBIFLY December 2007 - Disclaimer

ORBIFLY MET'MAP TEAM :

Programming & Development : Alexandra Zaïnal
Concept & Development : Baudouin d'Aumeries
Co-Development & Prog : Marc-Olivier Méhu
Technical & hardware support : Manuel Goepfert

Contact : metmap@orbifly.com




SOURCES & CREDITS :

   NOAA       Earth
Advisory